Wind_Speed
46 49 51 56 59 56 55 56 58 60 60 59 57 57 56 57 59 57 55 56 56 55 55 54 53 54 54 55 56 56 57 58 58 59 60 60 61 63 66 69 70 72 73 74 72 68 63 59 57 56 55 55 55 54 54 54 53 50 47 43 38 35 32 29 27 25 24 24 24 25 27 28 30 32 33 35 36 37 38 39 39 40 40 40 41 42 42 43
41 44 46 49 55 57 56 55 56 57 58 58 56 55 52 48 50 53 53 54 53 54 56 54 54 56 55 57 57 57 59 59 60 61 61 62 63 65 67 69 70 70 69 66 62 57 53 51 51 51 52 51 51 51 50 48 44 40 35 32 28 26 23 22 21 22 22 24 25 26 28 29 30 32 33 33 34 35 36 36 36 37 38 39 40 40 41 41
35 38 39 40 44 49 52 55 56 56 55 55 55 54 51 45 45 46 47 50 49 51 53 53 56 57 56 57 57 57 59 59 60 61 62 63 63 63 63 64 63 61 58 54 52 50 48 47 48 48 48 48 48 46 42 37 33 29 26 23 21 19 18 19 20 22 23 24 26 27 28 29 30 31 31 32 32 33 34 35 36 37 38 39 40 41 41 41
31 34 35 34 34 35 37 41 44 48 48 49 50 49 47 45 43 41 41 43 44 45 47 49 51 53 54 54 54 55 57 58 59 60 60 60 60 58 57 55 52 50 48 47 46 45 44 44 45 45 45 44 41 35 30 26 24 21 19 17 16 16 18 19 21 22 24 25 26 27 28 29 30 30 31 32 33 34 35 36 37 38 39 40 40 41 42 43
28 32 34 34 33 31 30 29 31 36 39 40 42 42 42 40 38 38 37 37 39 40 41 42 43 45 47 47 49 52 54 55 56 56 56 55 53 50 47 44 43 43 43 43 42 42 42 42 42 42 39 34 28 23 20 19 18 15 13 13 15 16 18 19 20 22 24 25 26 27 28 29 30 31 31 32 33 34 36 37 38 39 40 40 40 41 42 42
28 30 31 32 32 31 30 29 28 29 30 31 33 36 36 33 33 35 34 34 36 36 36 38 38 40 41 42 45 48 50 50 49 48 47 45 43 40 39 38 39 40 40 39 40 40 40 39 36 31 25 20 17 16 15 14 12 10 12 13 15 15 17 19 21 23 24 25 27 27 28 29 30 31 32 33 34 35 36 36 37 38 39 40 41 40 40 40
26 25 24 27 29 28 28 27 26 25 25 27 29 32 31 30 32 33 33 35 33 33 35 36 37 38 40 42 44 45 45 44 43 41 38 36 35 35 35 36 37 37 38 38 38 37 34 29 23 18 14 12 12 12 11 10 9 10 12 13 14 15 17 19 21 23 25 26 27 27 28 29 30 32 33 34 35 36 37 37 37 37 38 39 39 39 38 38
26 25 23 24 25 25 25 25 24 24 24 26 28 29 28 29 30 30 32 34 31 32 36 37 38 39 41 42 43 42 42 40 37 34 32 32 32 33 33 34 35 36 37 36 32 27 21 16 12 9 9 9 9 8 8 9 9 10 11 12 14 16 18 20 22 23 24 25 27 28 29 30 31 33 34 35 36 36 37 37 37 37 37 37 37 36 36 35
31 29 27 25 25 24 25 26 26 24 24 25 26 26 27 26 27 28 30 32 32 35 38 38 39 40 40 41 41 41 39 35 32 30 31 30 31 32 32 34 34 33 30 25 20 15 11 8 6 5 6 7 7 7 8 9 9 10 11 13 15 17 19 20 21 22 24 25 27 28 30 30 32 33 34 35 36 36 36 36 36 36 36 36 35 34 33 33
34 33 31 29 28 27 26 26 27 26 24 24 24 24 25 25 27 29 31 33 34 36 37 37 38 40 40 40 39 36 32 30 29 30 30 29 30 32 32 31 27 22 17 13 10 7 5 3 1 3 5 6 7 8 9 9 9 10 12 15 16 17 18 19 20 22 24 26 27 28 30 31 32 32 33 34 34 34 34 34 34 34 34 34 32 31 31 31
34 32 32 33 32 31 29 28 28 27 26 25 26 26 26 27 28 29 31 32 34 35 36 38 39 39 37 34 31 28 27 28 28 28 29 30 30 28 24 19 14 10 7 5 4 2 1 1 3 5 6 8 9 9 9 9 9 11 13 15 15 16 17 18 20 22 24 26 28 29 30 31 32 32 32 32 32 32 32 32 32 32 32 31 30 30 30 30
30 27 27 29 31 31 32 31 31 30 30 30 30 29 29 30 31 32 33 34 35 35 34 34 32 30 27 26 26 27 28 27 27 29 29 27 23 17 12 7 4 2 0 1 2 3 4 6 7 8 8 9 9 9 9 9 10 11 12 13 13 14 16 19 21 24 26 27 28 29 30 30 31 31 31 31 31 31 31 31 30 30 31 31 30 30 31 31
25 23 22 23 25 26 28 30 32 32 33 33 33 33 33 33 34 34 33 32 29 26 24 23 22 22 23 25 27 27 27 27 28 27 22 17 11 6 3 2 3 3 4 4 5 6 8 8 9 9 8 8 9 9 9 9 9 10 11 12 13 16 18 21 23 25 26 27 28 28 28 29 30 31 31 31 30 30 30 30 29 29 30 31 31 31 31 32
25 23 21 21 21 21 22 24 26 26 26 27 28 28 27 26 25 24 23 21 20 19 20 21 23 24 25 26 27 27 26 25 22 16 11 6 3 3 4 5 5 6 6 7 8 9 9 9 9 8 7 8 8 9 8 9 9 10 11 13 15 18 21 23 24 25 25 25 26 26 28 29 30 30 31 31 31 30 30 30 29 29 30 31 32 32 32 32
27 26 24 23 22 21 20 20 21 20 19 19 19 18 18 17 17 18 18 19 20 22 23 25 25 25 26 27 26 24 21 16 11 7 4 5 5 6 7 7 7 7 8 10 10 10 9 9 8 6 6 7 7 7 8 8 9 10 12 15 18 20 21 22 23 23 23 24 25 26 28 29 29 30 30 30 30 31 31 31 31 31 32 32 32 32 32 32
30 29 27 26 25 24 23 22 22 21 19 18 17 17 17 18 19 20 21 21 22 24 26 27 26 26 26 25 20 15 10 6 5 6 7 7 7 7 8 8 8 9 10 10 9 8 8 7 6 5 6 7 6 7 8 8 10 12 14 17 18 19 19 20 20 21 22 24 25 26 28 29 29 30 30 29 29 30 31 31 32 33 33 32 31 32 32 32
31 31 30 28 28 27 26 25 25 24 23 21 20 20 21 21 22 22 23 23 24 25 26 27 26 24 21 15 9 6 6 7 8 9 9 8 8 8 8 8 9 9 9 9 8 7 6 5 5 6 6 6 6 7 8 10 11 14 15 16 16 16 17 19 21 22 24 25 26 27 27 28 28 28 28 28 29 29 30 31 32 32 32 31 32 33 33 34
32 32 31 30 30 29 28 27 27 26 25 24 23 23 23 23 24 23 24 24 25 25 25 25 22 16 10 7 6 8 9 10 10 9 8 8 7 8 8 8 8 7 7 6 5 4 3 4 5 6 5 5 6 8 9 11 13 14 14 14 15 16 18 21 23 24 25 25 26 26 27 27 27 28 27 28 28 29 30 30 31 31 31 32 34 34 34 35
34 33 33 32 31 31 30 30 29 28 27 26 26 26 26 26 26 25 25 25 25 24 22 17 11 7 7 9 11 11 12 11 10 9 8 7 7 7 7 7 7 6 5 4 3 3 3 3 3 3 4 5 7 9 11 12 12 11 12 13 15 17 19 22 23 25 25 25 26 26 26 27 28 28 28 28 28 29 29 29 30 30 32 34 34 34 35 37
35 34 33 33 32 32 32 32 32 31 29 29 29 28 28 28 27 27 26 25 23 19 12 8 8 10 12 13 13 13 12 10 9 8 7 7 7 8 8 8 7 7 6 5 3 2 1 1 1 2 4 6 8 10 10 10 10 11 12 14 16 18 21 22 24 25 25 26 26 26 26 27 28 29 28 28 28 28 28 28 29 30 33 34 33 34 37 39
37 35 34 33 33 32 32 32 32 31 31 30 29 29 29 29 29 28 26 21 15 9 8 10 12 14 15 15 14 12 11 9 8 7 7 8 9 9 8 8 7 7 6 5 3 2 2 2 1 2 4 7 9 8 8 10 11 12 14 16 18 20 22 23 24 25 25 26 26 27 28 29 29 28 27 27 27 27 27 28 29 30 32 32 33 36 38 40
38 37 36 34 33 32 31 31 30 30 30 30 30 31 31 30 28 24 18 12 9 11 13 14 16 17 16 14 12 11 10 9 9 9 9 9 9 8 8 7 7 7 7 5 4 4 4 2 1 3 5 8 7 8 9 11 12 14 16 18 20 22 23 24 25 25 25 26 27 28 29 29 28 26 26 26 26 26 27 28 29 31 32 33 35 37 39 41
39 38 38 37 35 34 33 32 31 31 31 32 33 32 30 26 20 14 11 13 15 16 17 18 18 17 15 13 12 11 10 10 10 10 9 9 8 8 8 9 9 8 7 6 6 5 3 2 2 4 7 7 7 8 10 12 14 16 18 20 22 24 25 25 25 25 25 26 28 29 29 29 28 27 27 26 26 27 28 30 31 32 34 35 37 39 40 41
43 41 40 39 38 37 36 35 34 35 35 34 30 26 21 15 12 12 16 19 20 20 21 20 18 16 14 13 12 11 11 10 10 10 9 9 9 9 10 10 10 9 8 7 6 4 2 3 4 5 7 6 6 9 11 13 15 18 20 22 24 25 25 24 25 25 26 27 28 29 29 30 30 30 29 29 29 29 31 33 34 36 38 39 40 40 41 42
45 44 43 42 41 40 39 38 36 35 31 25 20 16 13 14 17 18 20 23 24 22 20 19 17 15 14 13 12 11 11 11 10 10 9 10 11 12 12 12 11 10 8 7 5 3 4 4 5 6 5 4 5 9 11 13 16 19 21 23 25 25 24 24 25 26 27 28 29 30 31 32 33 33 32 32 33 34 36 37 39 42 43 43 43 43 43 43
36 37 38 39 40 38 36 33 28 24 19 16 14 15 18 21 23 23 23 25 24 22 19 18 16 15 14 13 12 11 11 11 11 10 10 11 12 13 13 12 11 9 7 5 4 4 5 5 6 5 4 4 5 8 10 13 16 19 22 23 24 24 24 24 25 26 27 27 29 31 32 34 35 36 36 37 38 39 41 42 44 45 45 45 45 45 45 44
25 25 25 26 27 26 23 20 18 18 18 19 20 22 24 25 26 26 24 24 22 20 19 17 15 14 13 12 11 11 11 11 11 11 11 12 12 13 13 12 9 7 6 5 5 5 5 5 5 4 5 5 6 8 10 13 16 19 22 23 23 23 22 24 25 25 26 28 30 32 34 36 37 38 39 41 42 43 44 45 46 46 46 46 46 46 45 45
22 22 21 21 21 21 21 21 22 22 23 24 26 27 28 28 27 26 24 22 20 18 17 15 13 13 12 11 11 11 11 10 11 11 11 11 11 12 11 10 8 6 5 5 5 5 5 5 5 5 5 5 7 8 9 12 15 18 21 22 22 21 21 22 24 25 26 29 32 33 34 36 38 39 40 42 44 44 44 45 45 46 46 46 46 46 46 46
26 26 26 25 25 25 25 26 26 27 28 29 30 29 28 27 25 23 22 20 18 16 14 13 12 12 11 10 10 10 10 10 10 10 10 10 10 10 9 8 6 5 4 4 4 4 4 4 4 4 4 6 7 8 9 11 13 17 19 20 19 20 21 22 23 24 25 28 31 32 34 36 38 40 42 43 44 45 45 44 44 45 45 46 46 46 47 47
31 30 30 30 29 29 29 29 30 31 32 32 31 29 27 25 23 21 19 17 15 13 12 11 11 11 10 9 9 9 9 8 9 9 9 10 10 9 8 6 5 3 3 3 3 3 3 4 4 4 5 5 6 8 9 11 13 16 18 18 18 19 21 22 23 24 24 26 29 30 32 35 38 40 42 43 44 45 46 45 44 44 45 45 46 46 47 48
34 33 32 32 32 32 32 32 32 33 33 31 29 27 25 23 21 18 16 14 13 11 10 10 10 10 9 9 9 8 8 8 8 7 8 8 8 7 5 4 3 2 1 2 2 2 3 3 4 4 5 5 6 8 10 12 14 16 16 17 17 19 20 22 23 25 26 27 29 30 33 35 38 39 41 42 43 45 46 46 46 45 46 46 46 47 47 48
35 34 33 33 33 32 32 32 32 31 30 28 26 24 23 21 19 16 14 13 12 11 10 10 10 9 9 8 8 7 7 7 7 7 7 7 7 5 3 2 2 2 2 1 2 2 2 3 4 5 7 8 8 9 11 12 14 15 16 17 18 19 20 22 25 27 29 30 31 32 34 35 36 37 39 41 42 44 45 46 46 46 46 46 46 47 47 48
34 33 32 32 31 31 31 30 29 28 26 24 23 22 21 19 16 14 13 12 12 11 11 10 10 9 8 8 7 7 6 7 7 7 7 6 5 3 2 1 2 3 1 1 1 2 4 5 6 7 9 11 10 10 10 12 13 15 16 18 19 21 23 25 26 28 31 32 32 32 33 33 34 36 38 40 41 42 44 45 45 45 45 45 46 46 47 48
31 30 29 29 28 27 27 26 25 23 22 21 20 19 19 17 14 13 13 13 12 11 10 10 9 8 8 7 7 7 6 7 7 7 6 5 3 2 1 2 2 2 2 2 2 3 5 7 8 9 10 12 12 11 11 13 14 16 18 20 21 22 23 24 26 28 29 30 30 30 31 32 34 35 37 38 39 41 41 42 43 44 44 44 44 45 46 47
27 27 26 25 24 24 23 22 21 20 19 19 18 17 17 16 14 14 13 13 11 11 10 9 9 8 8 7 7 7 7 6 7 6 5 3 2 2 2 2 2 3 3 3 2 4 6 8 9 10 11 13 14 13 13 14 15 17 19 20 21 22 23 24 25 26 26 27 28 30 31 32 33 35 36 38 39 40 40 41 42 43 43 43 43 44 45 45
25 24 23 22 21 21 20 19 19 18 18 18 17 17 16 15 14 14 13 12 11 10 9 9 9 8 8 8 8 7 6 6 6 5 3 2 2 1 1 2 3 4 5 4 4 4 6 8 10 12 13 14 15 15 15 15 16 18 19 20 22 23 23 24 23 23 24 26 27 29 30 31 32 34 36 37 38 39 39 39 41 42 42 43 43 43 44 44
22 22 21 20 20 19 19 18 18 18 17 17 16 16 15 14 13 12 12 11 10 10 9 8 8 8 8 8 8 6 5 5 5 4 3 3 2 2 2 3 5 6 7 7 6 6 7 8 10 12 13 14 15 16 16 16 18 19 20 21 22 22 22 22 22 23 24 26 28 28 29 30 32 34 37 37 38 39 38 38 39 41 42 43 43 43 43 44
20 20 19 19 18 18 18 17 17 16 16 15 15 14 13 12 12 11 11 10 10 9 8 8 7 7 8 8 7 6 5 5 4 4 3 3 3 4 5 6 6 7 8 8 8 9 9 10 10 12 13 15 16 16 17 18 19 20 20 21 20 20 20 21 23 25 26 27 28 28 29 31 33 35 38 40 40 40 39 38 39 41 43 43 44 43 43 43
19 19 19 18 18 18 17 17 16 16 15 15 14 14 13 12 12 11 10 10 10 9 8 8 8 8 8 8 7 6 5 5 4 4 5 5 5 6 7 8 9 9 9 10 10 11 11 11 11 12 13 15 15 16 17 19 20 21 19 18 19 20 21 21 23 26 27 28 29 29 29 31 34 36 39 41 41 41 40 39 39 41 43 43 43 43 43 43
20 19 19 19 18 18 17 16 16 16 15 15 15 14 13 12 11 10 10 10 10 9 9 9 8 9 8 8 7 6 5 5 5 6 6 6 7 8 9 11 11 11 11 11 12 13 14 14 13 13 14 14 15 16 17 18 20 20 19 18 20 22 23 23 24 25 27 29 29 30 31 33 35 37 40 41 42 42 41 40 40 41 42 43 43 43 43 44
20 19 19 18 17 17 16 16 16 16 15 15 15 14 12 11 10 10 9 10 10 10 10 9 9 9 8 7 7 6 6 6 7 7 7 8 9 10 12 12 13 13 13 13 14 14 16 16 16 15 14 15 15 15 16 17 19 19 18 19 22 23 24 25 26 27 28 30 30 31 33 35 37 39 40 42 42 43 42 40 39 40 41 42 43 43 43 45
19 18 17 16 16 15 15 15 15 15 15 14 14 13 12 11 10 10 10 11 11 11 11 10 10 9 8 8 7 7 8 8 8 9 9 10 11 12 13 13 14 14 14 15 16 17 17 18 18 17 16 16 16 15 15 17 18 19 19 20 23 24 25 27 28 29 30 32 32 33 34 35 38 40 41 42 43 43 42 40 39 39 40 41 42 43 44 45
17 17 16 15 15 14 14 14 14 14 14 14 13 13 12 12 12 12 12 12 11 11 11 11 10 9 9 8 9 9 9 9 10 10 11 11 12 13 14 14 14 15 16 16 18 18 19 20 20 20 19 18 18 17 17 17 18 19 20 22 24 25 26 28 29 31 31 33 34 35 35 36 38 40 41 43 43 43 42 41 40 39 40 41 42 44 45 45
17 16 15 15 14 14 14 14 14 14 15 14 14 14 14 13 13 13 13 12 12 11 11 11 11 10 10 10 10 10 10 11 11 12 12 13 13 14 14 15 15 16 17 18 19 20 21 21 22 22 22 21 21 20 19 19 19 20 21 24 25 27 28 29 31 32 33 34 36 36 36 37 39 41 42 43 44 44 42 42 41 40 40 41 42 44 46 46
17 16 16 15 15 15 15 16 15 15 15 15 15 15 14 14 14 13 13 13 12 12 12 12 11 11 12 12 11 12 12 12 13 13 14 14 15 15 15 16 17 17 19 20 21 22 23 24 24 25 25 25 25 25 24 23 23 23 24 25 26 28 29 31 33 34 36 36 37 38 38 38 39 41 43 44 44 44 43 41 41 40 40 40 42 44 47 48
18 17 17 17 17 17 17 17 16 16 16 16 16 16 15 15 14 14 14 14 13 13 13 13 13 13 13 13 13 13 13 13 14 14 15 15 16 16 17 17 18 19 20 22 23 24 25 26 26 27 27 27 28 28 29 28 28 28 29 29 29 30 30 31 32 34 36 38 39 40 40 40 40 41 42 43 44 44 43 41 41 41 40 41 42 44 46 48
20 19 19 18 18 18 18 18 18 18 17 17 17 17 17 17 16 15 15 15 14 14 14 14 14 14 15 15 15 15 15 15 16 15 16 16 17 18 18 19 20 21 22 23 24 25 25 26 28 28 29 30 30 31 32 32 33 33 34 35 35 35 35 35 36 36 38 39 40 42 42 42 42 42 41 42 43 42 42 41 41 41 41 41 42 43 44 46
22 21 21 20 20 20 20 20 20 20 20 20 20 20 19 19 18 17 17 16 16 16 16 16 16 16 17 17 17 17 17 17 17 17 18 18 18 19 20 20 21 22 23 24 25 26 26 27 28 29 29 30 32 34 34 36 36 37 38 39 40 41 41 42 42 42 43 43 43 44 44 45 45 44 42 42 42 42 41 40 40 41 41 42 43 43 43 44
24 23 23 22 22 22 22 22 22 22 22 22 22 22 22 21 20 20 19 19 18 18 18 18 18 18 18 19 18 19 19 19 20 20 21 21 21 21 22 23 23 25 25 26 27 27 28 28 29 30 30 29 31 34 36 38 39 40 40 41 42 42 44 45 45 45 46 47 48 47 47 48 48 47 45 42 41 42 42 40 40 40 41 42 43 43 43 44
25 25 24 24 24 24 24 24 24 24 24 24 24 24 24 23 22 22 22 21 21 21 21 20 21 21 21 21 21 21 22 23 23 24 24 24 25 25 25 26 27 27 28 29 29 30 30 31 31 32 33 32 31 33 35 37 40 41 42 43 44 44 45 46 47 46 46 48 50 51 50 50 49 49 47 44 41 41 42 42 41 41 41 42 42 43 43 43
28 27 27 26 27 27 27 27 27 26 26 26 25 25 25 25 25 24 24 24 24 23 23 23 23 24 24 24 24 25 25 26 27 28 28 28 27 28 28 29 29 30 30 31 32 32 33 34 34 34 36 36 35 35 37 38 41 42 43 44 45 46 47 48 49 48 47 48 51 52 52 51 50 49 49 47 43 40 42 44 44 43 42 42 42 42 43 43
30 30 30 29 29 29 29 29 29 28 28 28 27 27 27 27 27 27 27 27 27 27 27 26 27 27 27 27 28 28 29 30 31 31 31 30 30 30 30 31 31 32 33 34 35 36 36 37 37 37 37 39 40 39 40 41 43 45 45 46 47 48 49 51 51 50 48 48 50 53 53 51 50 50 49 49 47 43 44 46 47 46 44 43 43 43 43 43
Wind_Direction
196 201 205 208 210 212 214 215 216 217 221 224 228 230 231 232 233 236 241 243 244 245 245 246 249 250 254 258 259 263 267 270 273 274 276 278 280 280 280 280 281 281 283 284 285 286 286 287 288 289 291 292 293 293 292 292 291 292 293 295 299 302 304 305 307 311 315 318 323 326 328 329 329 328 327 327 327 326 325 324 323 322 321 320 319 318 316 315
192 198 203 208 211 213 215 216 218 220 222 225 228 230 231 232 234 237 241 245 247 248 247 249 253 253 257 260 262 266 269 271 273 274 276 277 278 279 279 279 280 280 281 282 283 284 285 287 289 290 291 291 291 291 291 291 292 294 297 301 304 306 308 312 318 324 327 329 331 331 330 329 327 325 324 324 322 321 320 319 318 318 317 317 316 315 314 314
184 190 195 202 208 212 215 218 220 222 224 226 227 229 230 231 235 239 244 248 250 251 250 251 255 256 259 263 264 268 270 271 273 274 276 276 277 278 278 278 278 279 280 281 283 284 286 288 289 289 289 289 289 289 290 292 296 301 304 306 309 314 321 328 332 333 332 331 330 329 327 325 322 321 320 319 318 317 316 316 316 315 315 316 316 315 315 313
179 183 186 189 195 201 208 214 218 221 223 225 227 228 231 234 238 241 246 250 252 253 253 254 256 258 261 264 266 268 270 272 274 275 275 275 276 276 277 278 278 279 280 283 285 287 289 288 288 287 287 288 289 291 294 299 303 305 308 314 323 331 336 337 335 332 329 327 326 324 323 321 320 319 319 318 318 318 317 316 316 315 316 317 317 317 316 316
178 182 185 187 189 193 198 202 209 217 220 223 227 229 233 237 240 243 247 251 252 254 255 256 258 259 261 264 266 268 270 272 273 273 273 273 274 276 277 278 279 280 283 285 288 289 288 287 286 287 287 289 292 297 302 306 306 307 319 333 339 341 339 335 330 325 323 322 322 320 319 319 318 318 317 317 317 316 316 316 316 317 318 318 318 318 319 321
169 177 183 189 192 196 199 201 206 216 221 223 226 230 234 238 241 244 247 249 250 251 253 255 257 259 260 263 266 268 270 271 273 273 273 274 276 277 278 280 282 284 286 287 288 287 286 286 286 287 289 294 300 306 308 308 311 324 341 346 342 339 333 327 322 318 318 318 318 317 317 316 315 315 316 316 316 316 316 317 319 320 320 320 320 321 324 327
160 166 173 187 194 197 202 205 210 215 218 221 225 228 232 235 238 241 242 243 246 247 250 254 257 259 261 264 267 269 272 274 277 278 278 278 279 281 283 286 287 287 287 286 286 286 286 287 287 291 296 305 310 311 314 320 334 349 350 343 336 330 324 320 317 315 315 314 314 314 314 314 315 316 317 318 318 318 319 321 322 322 322 322 322 325 329 331
156 157 161 176 185 191 199 204 208 209 213 219 221 224 227 229 233 235 237 239 243 246 250 254 259 261 263 266 269 272 276 278 279 279 279 280 283 286 288 288 287 286 286 285 285 285 286 289 293 301 309 314 315 321 336 345 355 356 344 334 327 321 318 315 314 313 312 312 312 313 313 315 317 318 320 320 321 321 323 323 323 323 324 324 328 332 334 335
158 158 160 164 170 179 190 197 201 205 209 214 216 219 223 226 229 233 236 240 244 249 252 255 258 262 264 268 272 275 276 276 276 279 283 285 288 288 287 286 285 285 285 284 284 284 289 294 299 314 321 324 332 348 356 355 355 346 333 326 320 316 314 313 311 310 309 310 311 313 315 317 318 320 321 323 324 325 325 325 325 326 327 330 336 340 340 343
169 170 172 170 169 171 178 184 191 197 199 203 210 216 221 225 229 234 238 242 244 248 253 256 259 263 266 270 272 272 272 273 280 286 288 287 286 285 285 285 284 283 282 282 285 287 288 283 310 360 351 352 360 3 358 350 340 332 326 321 316 313 312 310 308 307 309 311 314 316 318 320 322 324 326 327 328 329 329 329 330 332 334 340 346 348 349 352
184 187 189 188 184 183 183 181 182 187 191 196 205 211 215 220 225 230 235 239 243 249 254 258 262 265 267 268 269 271 277 283 288 289 286 285 284 284 284 282 279 276 280 286 282 256 191 112 65 40 20 12 9 2 352 341 330 325 322 317 313 311 312 309 307 309 312 315 319 322 323 325 328 331 333 333 334 335 336 338 341 343 346 350 355 355 356 357
201 201 200 199 196 197 196 192 191 196 200 203 208 213 218 224 229 234 238 242 249 254 257 259 262 265 267 271 277 283 289 290 288 286 285 285 284 282 276 269 260 261 282 160 166 143 108 82 62 45 28 16 5 355 347 336 329 325 319 314 311 309 309 309 310 315 317 320 323 326 328 331 334 336 338 339 341 343 347 351 353 355 355 357 358 359 360 0
209 206 203 203 201 202 202 202 205 210 214 217 221 225 229 234 238 242 244 246 250 255 259 263 268 272 278 283 287 289 289 287 286 285 285 281 275 261 234 184 142 124 123 127 113 94 83 73 59 42 25 12 359 351 341 332 330 327 318 312 309 308 309 312 316 319 321 323 326 328 331 334 336 338 340 344 348 351 356 0 1 0 360 360 0 1 2 3
212 211 209 210 210 211 208 207 211 214 218 220 222 226 230 234 238 242 246 249 255 263 271 276 281 284 288 289 288 287 286 284 283 280 271 252 215 169 149 140 132 123 116 103 89 79 73 68 59 43 22 8 356 347 336 331 335 330 319 314 312 312 315 317 320 322 324 327 330 332 334 336 339 343 347 351 353 357 2 4 3 3 2 2 2 3 5 6
213 214 215 217 221 223 221 220 222 224 225 224 224 227 234 244 251 258 263 266 268 272 278 284 288 290 291 289 286 285 281 276 266 245 203 162 148 147 144 132 116 104 95 86 82 79 73 69 63 43 15 3 351 341 336 338 340 330 321 317 316 318 321 323 325 328 331 333 336 338 340 343 346 350 355 357 359 2 5 5 4 4 4 5 5 7 9 10
214 217 220 223 227 231 234 235 236 240 243 244 245 248 255 264 269 273 275 275 274 277 281 287 289 290 289 286 281 274 262 235 197 166 145 142 147 145 131 112 98 88 82 81 82 80 76 71 57 24 359 349 340 336 340 344 341 332 326 324 326 329 332 334 337 340 342 342 342 344 347 350 353 357 0 2 4 6 7 7 6 7 8 10 11 13 15 17
217 220 223 228 232 237 240 242 244 249 253 257 260 262 267 272 276 280 281 281 283 284 286 288 288 286 282 274 256 226 187 162 149 139 139 146 143 126 107 93 84 77 78 81 81 78 71 55 17 355 344 336 333 339 347 347 339 334 333 334 339 344 346 348 348 348 347 346 346 348 351 354 357 1 4 6 7 8 9 9 9 12 14 16 19 20 20 22
220 225 228 232 236 240 243 246 250 254 258 263 268 271 275 281 284 285 285 286 287 288 288 287 283 275 257 219 176 157 148 141 135 136 141 139 123 103 89 80 74 73 77 80 75 60 35 2 344 340 338 334 339 348 350 345 341 342 345 350 352 353 355 356 353 351 349 349 351 353 355 357 360 5 8 9 9 10 11 13 16 18 20 21 24 25 25 26
226 229 232 235 239 243 246 249 254 259 263 267 273 277 281 285 287 288 288 288 288 288 285 277 259 221 180 158 149 144 138 133 134 136 133 120 102 88 77 70 67 63 65 65 44 8 349 334 333 337 336 339 347 349 347 348 352 357 357 356 356 357 358 357 354 352 352 354 356 358 359 360 3 8 12 12 12 13 15 19 22 23 24 25 27 29 30 32
230 232 235 238 241 245 249 253 258 262 266 269 273 277 281 284 286 287 287 286 285 280 265 227 180 159 151 147 143 138 133 132 134 131 120 105 89 80 73 70 68 65 64 65 53 33 16 11 16 351 342 345 347 347 353 3 8 4 358 355 356 358 357 355 355 355 358 0 1 1 2 5 9 12 14 14 16 19 21 25 27 28 29 31 33 35 36 37
231 233 235 239 242 246 250 254 259 262 265 268 271 275 278 281 283 283 282 279 269 240 184 158 151 148 145 142 138 134 133 131 127 119 108 97 89 87 85 82 81 82 86 92 106 109 109 105 68 356 348 351 352 1 14 19 12 2 360 360 359 358 357 359 1 3 4 6 7 8 10 13 15 17 17 18 21 24 27 31 34 35 35 36 37 38 39 40
231 232 233 236 241 244 247 251 255 258 261 264 269 274 277 278 278 276 268 246 199 163 151 149 148 143 139 137 135 133 130 126 121 112 104 99 100 101 99 98 98 102 109 116 120 116 114 109 39 360 356 360 11 26 27 17 8 3 3 3 1 0 2 6 10 11 11 13 15 17 19 21 22 23 24 25 28 31 34 39 40 39 36 35 36 37 38 39
231 232 233 234 237 240 244 248 251 254 259 265 270 273 273 271 265 250 213 174 156 149 148 147 142 138 135 134 132 130 128 125 119 113 111 110 110 108 104 105 107 112 117 118 114 118 119 84 21 4 2 15 38 37 24 14 8 5 5 4 4 7 12 15 17 18 19 21 23 25 27 28 30 31 33 34 37 39 41 42 39 33 30 30 32 33 33 35
232 233 234 235 236 239 242 245 250 257 263 267 268 264 258 245 215 183 163 153 148 147 145 142 137 134 133 132 132 131 130 124 119 118 118 115 110 106 104 107 110 114 118 116 114 117 91 44 17 1 7 39 55 31 21 15 10 8 7 7 9 14 20 23 23 24 26 28 28 30 32 34 35 37 38 39 40 40 38 35 30 25 23 24 25 26 28 30
233 234 236 237 237 239 243 247 253 258 260 257 248 232 208 179 162 155 152 147 144 143 141 138 135 135 134 135 135 133 129 122 118 118 114 109 108 107 107 109 110 113 115 112 103 79 49 29 6 1 23 73 55 27 22 18 12 10 9 9 13 20 26 28 30 30 30 31 31 33 35 36 37 38 37 36 35 32 28 25 21 19 19 19 19 20 22 25
226 229 231 234 236 239 242 245 245 242 232 214 194 176 162 154 150 149 148 143 140 139 138 138 137 138 138 137 135 131 123 118 114 111 109 109 109 108 108 108 108 107 103 93 77 57 41 18 1 15 68 89 45 29 25 19 14 11 10 11 15 22 30 33 34 34 33 33 34 36 37 36 36 34 31 29 26 24 21 19 17 16 16 16 16 16 18 20
202 206 210 216 220 221 219 214 205 193 180 167 159 154 150 148 146 145 143 139 137 139 140 140 140 140 138 135 131 123 117 114 110 106 107 109 110 110 108 106 102 95 89 82 73 55 36 18 20 56 89 72 40 32 24 17 15 12 11 13 17 25 33 36 37 36 36 36 37 37 36 34 31 28 25 23 20 18 16 14 14 13 13 13 14 14 15 16
169 171 173 176 178 177 174 169 165 161 156 152 150 149 147 145 142 141 139 137 139 142 143 142 141 140 138 132 125 119 116 112 105 103 106 109 112 112 108 102 95 87 85 84 72 51 39 42 60 82 81 52 37 30 19 14 14 12 11 13 19 27 34 37 38 37 36 35 36 35 32 29 25 21 18 15 13 11 9 9 10 10 11 11 11 12 13 13
147 149 150 152 153 154 153 153 152 150 149 147 147 147 144 141 139 139 140 141 145 146 145 144 143 142 136 128 123 120 116 110 105 103 108 113 115 113 108 102 95 87 89 85 69 54 51 58 68 73 54 37 29 20 15 12 12 12 12 13 21 29 32 34 35 35 34 32 31 29 25 21 16 12 9 8 8 7 6 7 7 7 8 8 9 9 10 10
138 140 142 144 145 147 148 148 148 147 146 146 145 144 141 139 139 141 145 150 152 151 150 148 146 141 134 128 127 124 121 115 109 108 112 117 117 114 111 105 98 95 94 83 67 57 50 44 43 38 31 27 18 13 13 13 12 13 13 13 19 25 27 26 27 28 27 24 22 19 15 10 6 5 6 7 8 8 7 7 6 5 5 5 6 6 7 9
136 138 140 141 142 144 144 144 145 144 144 144 143 142 141 142 144 148 155 159 159 157 155 151 147 141 137 136 136 135 131 123 116 116 121 121 120 118 113 105 103 120 121 83 60 46 29 19 20 22 26 24 13 10 13 13 12 12 14 16 16 17 19 18 17 17 16 14 11 7 4 2 2 5 8 10 10 9 9 7 6 5 4 4 4 4 5 7
134 136 137 138 139 140 141 141 142 142 143 143 144 145 147 149 153 158 165 166 166 164 158 153 149 146 147 148 146 142 135 128 127 129 128 126 126 125 116 111 143 187 200 71 46 16 347 350 6 17 24 26 18 8 9 11 10 9 13 15 13 11 10 8 6 5 5 4 2 1 1 2 5 8 10 10 10 10 9 8 7 5 4 3 3 3 4 5
130 131 132 134 135 137 138 140 140 141 143 145 148 152 155 158 163 168 171 171 169 164 157 154 154 154 157 156 152 146 140 139 141 141 139 138 135 128 120 165 208 213 224 359 4 337 332 345 360 9 16 24 24 12 5 5 4 4 3 2 2 2 360 358 357 357 357 358 1 5 7 9 10 10 9 9 9 9 9 8 7 7 5 3 3 3 4 4
125 126 127 130 132 135 138 140 141 143 146 150 155 160 164 170 175 175 173 170 165 161 158 158 161 164 164 162 158 155 154 153 152 153 151 147 139 140 174 211 227 233 269 323 329 332 338 346 353 357 3 13 19 14 5 2 0 359 356 354 355 355 354 353 353 352 355 1 8 12 13 12 10 9 7 7 7 7 8 8 9 9 7 6 4 4 4 4
123 124 126 129 131 134 138 141 144 148 153 158 164 168 173 177 176 173 169 164 162 162 164 167 171 173 173 169 168 168 168 165 164 161 159 157 161 171 190 216 238 258 281 299 312 330 341 345 348 352 354 0 8 10 5 1 1 359 357 355 353 352 351 351 352 353 358 7 12 12 12 10 8 7 5 4 4 4 5 7 9 10 9 8 6 5 4 4
125 127 129 131 133 136 140 144 149 153 158 162 167 169 172 172 169 167 165 163 166 170 173 178 182 181 180 178 177 178 179 175 172 173 178 186 188 190 228 265 288 300 304 308 316 333 344 347 348 351 353 354 359 5 4 1 360 358 356 353 350 349 350 353 358 2 5 8 8 7 7 6 5 3 1 1 1 2 3 5 7 8 9 9 7 6 5 4
129 131 133 136 139 142 146 150 154 157 160 161 163 164 165 166 166 167 169 171 176 180 184 189 191 189 187 186 187 189 190 187 189 198 214 220 230 264 293 302 309 312 312 313 319 329 340 347 345 346 350 351 352 355 359 360 357 354 352 350 349 351 353 357 3 6 6 5 4 2 1 0 360 359 358 358 359 359 0 2 4 6 7 7 6 4 3 3
136 138 141 144 147 150 154 157 160 162 163 163 164 165 167 170 173 176 179 184 188 192 198 202 203 200 195 195 199 205 208 204 209 229 248 254 267 294 308 313 315 316 315 314 317 323 331 340 341 338 340 345 346 346 349 353 353 351 350 349 350 355 358 357 356 357 359 360 359 357 356 355 354 354 354 354 355 356 357 359 1 3 5 5 4 2 0 0
144 147 150 153 156 159 162 165 167 168 169 170 172 174 177 181 184 186 190 195 199 204 210 213 211 207 202 206 216 226 229 227 235 256 265 269 285 303 313 318 320 320 319 315 317 321 327 333 337 335 333 334 338 339 340 344 347 347 348 349 349 350 352 353 352 351 352 353 353 352 351 350 349 349 350 351 351 352 353 356 359 0 2 2 0 358 357 357
153 155 158 160 163 166 169 171 174 176 177 179 181 183 185 187 190 193 198 203 208 213 218 219 216 212 212 220 233 244 247 249 261 272 276 280 291 304 313 318 319 319 319 319 320 323 326 328 330 330 329 328 330 331 332 335 338 340 341 342 342 343 344 347 348 347 345 346 347 346 345 346 346 345 346 347 348 348 350 352 355 357 358 358 357 355 354 354
160 162 165 168 170 173 176 179 181 183 185 186 187 188 189 191 194 201 208 214 219 223 226 225 222 219 221 232 246 256 260 265 274 281 283 288 297 306 312 315 317 319 320 319 319 321 322 322 322 322 322 323 323 323 323 325 328 330 331 332 334 335 337 338 340 340 338 338 340 340 340 340 341 341 342 344 345 345 346 349 352 353 354 354 353 352 350 351
168 171 173 177 180 182 185 187 190 191 192 193 194 194 195 199 205 213 220 224 228 229 229 227 225 224 230 241 252 260 266 272 280 286 289 293 299 304 307 310 313 315 317 317 316 317 316 317 317 317 317 318 318 317 316 317 320 321 321 323 325 328 330 331 331 332 332 331 332 333 334 335 336 337 338 340 342 341 342 346 348 349 349 349 349 348 348 348
178 181 184 187 190 194 196 198 199 200 200 200 201 203 208 213 219 224 229 232 233 232 229 228 226 229 236 246 254 261 269 276 282 286 289 292 295 298 301 304 306 308 311 311 311 313 313 313 313 314 314 314 313 312 310 310 312 313 315 318 320 321 323 324 324 325 326 326 326 329 330 329 330 331 333 336 338 339 339 342 344 345 345 345 346 346 345 345
189 192 196 200 202 204 205 206 207 207 207 209 211 216 220 226 231 235 238 239 239 235 231 228 230 235 243 250 257 263 268 274 278 281 284 286 289 292 296 298 300 303 305 307 308 308 309 309 309 309 310 311 310 308 306 305 306 308 312 315 317 317 318 319 319 320 322 323 324 326 328 327 325 325 327 330 334 335 336 338 340 341 341 340 342 344 344 344
200 203 206 209 211 212 211 211 212 214 216 219 223 227 232 237 241 243 244 244 241 236 232 231 235 242 248 254 258 262 266 270 274 278 280 283 287 290 294 296 299 301 303 305 306 305 305 305 305 305 306 308 308 307 308 306 305 306 307 310 312 314 315 315 316 317 320 322 323 324 326 327 324 322 322 325 329 331 332 334 336 337 337 337 338 340 342 342
210 213 215 216 216 216 216 218 219 222 226 230 234 239 243 245 246 246 245 242 239 236 234 237 242 247 252 256 260 264 268 272 276 279 282 285 288 291 295 297 298 300 302 303 303 303 302 302 301 301 302 302 303 303 304 304 303 302 302 303 305 307 309 310 311 313 315 318 320 322 324 326 325 322 320 321 324 327 328 330 332 334 335 334 334 337 339 341
218 220 221 221 221 221 221 224 227 230 234 239 243 247 250 252 250 247 244 241 238 238 240 243 246 250 255 259 264 269 273 276 280 282 283 285 287 290 293 295 297 299 300 301 302 301 301 300 299 299 299 299 300 300 300 300 300 300 300 301 302 304 306 307 309 311 312 314 316 319 322 324 325 324 321 320 322 324 325 327 328 330 332 333 333 334 336 338
224 225 226 226 226 226 227 230 233 236 239 243 246 250 253 254 253 249 245 243 242 243 244 247 250 253 258 263 269 274 278 281 283 284 285 286 288 289 292 294 297 299 301 303 304 303 302 300 299 297 296 297 299 300 300 300 299 300 300 301 303 304 305 306 308 309 310 310 311 314 317 321 323 324 323 321 320 321 323 324 325 327 329 331 331 331 332 334
228 230 231 231 232 233 234 237 239 242 245 247 250 252 254 255 254 250 248 247 248 249 250 252 255 259 264 269 273 278 281 283 284 286 286 287 288 290 293 296 299 301 303 304 305 306 306 304 302 299 297 296 296 297 299 300 300 300 300 301 302 304 305 305 306 307 308 308 308 310 313 316 319 322 323 322 320 319 320 321 322 324 327 329 329 328 328 330
233 235 236 237 238 239 241 243 245 248 250 252 253 255 255 255 253 251 250 251 252 254 256 258 262 265 269 273 276 280 282 284 285 285 286 287 289 291 294 297 299 301 302 303 303 305 306 306 306 305 302 299 297 295 296 298 299 300 301 302 302 303 304 305 306 307 308 307 307 309 311 313 315 317 320 322 320 318 318 319 320 322 324 326 327 326 325 325
236 238 240 242 243 244 246 247 249 251 253 254 255 256 256 254 253 252 251 252 253 256 258 262 265 269 272 275 277 280 282 283 284 284 285 287 290 292 295 296 296 297 297 299 300 302 304 305 305 306 305 303 301 299 298 298 298 298 300 301 302 303 304 304 305 307 309 307 307 308 310 312 313 315 317 320 320 318 317 317 319 320 321 323 324 323 322 322
239 240 242 243 245 246 248 250 251 253 254 255 255 255 255 254 253 252 252 253 254 256 258 261 265 269 272 274 276 277 279 280 281 282 284 287 289 291 292 292 293 293 295 296 298 300 301 301 301 301 302 302 303 303 303 303 302 300 300 302 303 304 304 304 304 306 309 308 305 306 308 309 310 312 315 317 318 317 316 316 318 319 319 319 320 320 320 318
Height
10755 10760 10764 10768 10773 10777 10781 10786 10790 10794 10798 10801 10804 10807 10810 10813 10816 10817 10817 10818 10822 10825 10827 10829 10830 10830 10830 10829 10829 10829 10829 10829 10829 10829 10830 10830 10829 10827 10825 10823 10822 10821 10819 10818 10817 10816 10815 10813 10813 10813 10812 10812 10811 10809 10805 10801 10798 10794 10791 10788 10785 10782 10779 10777 10774 10772 10770 10767 10765 10762 10759 10756 10753 10750 10747 10744 10740 10736 10733 10729 10725 10721 10718 10714 10710 10706 10703 10699
10756 10760 10764 10768 10772 10777 10780 10784 10788 10792 10796 10800 10803 10806 10809 10812 10813 10815 10817 10819 10822 10824 10825 10828 10827 10827 10828 10827 10827 10827 10827 10826 10826 10827 10827 10826 10825 10823 10821 10820 10818 10817 10816 10815 10813 10813 10814 10813 10813 10812 10811 10810 10807 10805 10801 10797 10793 10790 10787 10785 10782 10779 10777 10775 10772 10770 10768 10765 10763 10760 10757 10754 10752 10749 10746 10742 10739 10735 10732 10728 10724 10720 10717 10713 10709 10706 10702 10697
10756 10760 10764 10768 10772 10776 10780 10784 10787 10791 10795 10799 10802 10805 10808 10811 10813 10815 10817 10819 10821 10822 10824 10825 10824 10825 10825 10825 10826 10825 10824 10823 10824 10824 10824 10822 10821 10819 10818 10817 10815 10814 10813 10812 10811 10812 10813 10813 10811 10810 10808 10806 10803 10800 10796 10792 10790 10787 10784 10782 10780 10777 10775 10773 10771 10769 10767 10764 10761 10759 10756 10754 10751 10748 10745 10742 10738 10735 10731 10727 10723 10719 10715 10711 10707 10703 10700 10696
10756 10760 10764 10768 10772 10776 10780 10784 10788 10792 10795 10798 10801 10805 10807 10810 10812 10815 10816 10817 10819 10819 10821 10822 10822 10823 10823 10823 10823 10822 10821 10821 10822 10822 10820 10819 10817 10816 10815 10813 10812 10810 10810 10811 10811 10812 10812 10811 10808 10806 10804 10801 10798 10795 10792 10789 10787 10785 10782 10780 10778 10776 10774 10772 10770 10768 10766 10763 10761 10758 10755 10753 10750 10747 10744 10740 10737 10733 10729 10725 10721 10717 10713 10709 10705 10701 10697 10693
10757 10761 10765 10769 10773 10777 10781 10785 10788 10791 10794 10797 10800 10803 10806 10808 10811 10812 10813 10814 10816 10817 10818 10819 10820 10820 10820 10821 10820 10819 10819 10819 10819 10818 10817 10816 10814 10813 10812 10810 10809 10808 10809 10810 10810 10810 10808 10807 10804 10802 10800 10797 10794 10792 10789 10787 10785 10783 10781 10779 10777 10775 10774 10772 10770 10767 10765 10762 10760 10757 10754 10752 10748 10745 10742 10739 10735 10731 10728 10723 10719 10715 10711 10707 10703 10699 10695 10690
10757 10762 10766 10770 10774 10777 10781 10784 10787 10790 10793 10797 10799 10802 10804 10807 10808 10809 10811 10812 10814 10815 10816 10817 10817 10818 10818 10818 10817 10817 10817 10817 10816 10815 10814 10812 10811 10810 10809 10808 10807 10808 10809 10809 10808 10806 10804 10802 10800 10798 10796 10793 10791 10789 10787 10785 10784 10782 10780 10778 10777 10775 10773 10772 10769 10767 10764 10762 10759 10756 10754 10751 10747 10744 10741 10738 10734 10730 10727 10723 10718 10714 10710 10706 10702 10698 10694 10689
10758 10763 10767 10771 10774 10778 10781 10784 10787 10790 10793 10795 10798 10801 10803 10805 10806 10808 10809 10810 10812 10813 10813 10814 10815 10815 10815 10815 10815 10815 10815 10814 10813 10812 10811 10809 10808 10807 10807 10807 10806 10807 10806 10805 10804 10802 10800 10798 10796 10794 10793 10791 10789 10788 10786 10784 10782 10781 10779 10778 10777 10775 10773 10771 10769 10767 10764 10761 10759 10756 10753 10750 10746 10743 10739 10736 10732 10729 10725 10721 10717 10713 10709 10705 10701 10697 10693 10688
10760 10764 10768 10771 10775 10778 10781 10783 10786 10789 10791 10794 10797 10799 10801 10803 10805 10806 10807 10808 10810 10810 10811 10812 10812 10813 10813 10813 10813 10813 10812 10812 10810 10809 10808 10807 10807 10806 10806 10805 10805 10804 10802 10801 10799 10798 10796 10794 10793 10792 10791 10789 10788 10786 10785 10783 10782 10780 10780 10778 10777 10775 10773 10771 10769 10766 10764 10761 10758 10754 10751 10748 10745 10741 10738 10734 10730 10727 10723 10719 10715 10712 10708 10704 10700 10696 10692 10687
10762 10765 10768 10772 10775 10778 10780 10783 10786 10788 10791 10793 10796 10798 10800 10802 10803 10805 10806 10807 10808 10809 10809 10810 10810 10811 10811 10811 10811 10810 10810 10808 10807 10806 10805 10805 10805 10804 10804 10802 10801 10800 10798 10797 10796 10794 10793 10792 10791 10790 10790 10788 10787 10786 10784 10783 10781 10781 10780 10778 10777 10775 10773 10771 10768 10766 10763 10760 10757 10754 10750 10747 10744 10740 10737 10733 10729 10725 10721 10717 10713 10710 10706 10702 10699 10694 10689 10684
10761 10765 10768 10771 10774 10777 10780 10783 10785 10788 10790 10793 10795 10796 10798 10800 10802 10803 10804 10805 10806 10807 10807 10808 10809 10808 10809 10808 10808 10807 10806 10806 10805 10804 10804 10803 10803 10801 10800 10799 10798 10797 10795 10794 10793 10792 10792 10791 10790 10789 10789 10787 10786 10785 10783 10783 10781 10780 10779 10778 10776 10774 10773 10770 10768 10765 10762 10759 10756 10753 10749 10746 10742 10739 10735 10732 10728 10723 10719 10715 10711 10707 10703 10700 10697 10692 10687 10682
10761 10764 10767 10770 10773 10776 10779 10782 10784 10787 10790 10791 10793 10795 10797 10798 10800 10801 10802 10803 10804 10805 10806 10806 10806 10806 10806 10805 10805 10804 10804 10803 10803 10802 10801 10800 10799 10798 10797 10796 10795 10794 10793 10792 10792 10791 10790 10790 10789 10788 10787 10786 10785 10784 10783 10782 10781 10780 10779 10777 10776 10774 10772 10770 10767 10764 10761 10758 10755 10752 10748 10744 10740 10737 10734 10730 10726 10722 10717 10713 10709 10705 10701 10698 10694 10690 10685 10681
10761 10764 10767 10770 10772 10775 10778 10781 10783 10786 10788 10789 10791 10793 10795 10797 10798 10799 10801 10802 10803 10803 10803 10803 10803 10803 10803 10802 10802 10802 10801 10801 10800 10799 10798 10797 10796 10795 10794 10794 10793 10793 10792 10791 10791 10790 10789 10788 10788 10787 10787 10786 10785 10784 10783 10782 10781 10780 10779 10777 10776 10774 10771 10769 10766 10763 10760 10757 10754 10750 10746 10742 10739 10736 10732 10728 10724 10720 10716 10712 10708 10704 10700 10696 10692 10688 10683 10679
10760 10763 10766 10769 10772 10774 10777 10780 10782 10784 10786 10788 10790 10792 10794 10795 10797 10798 10799 10800 10800 10801 10801 10800 10800 10800 10800 10800 10799 10799 10798 10798 10797 10796 10795 10794 10794 10793 10793 10793 10792 10792 10791 10791 10790 10789 10788 10787 10787 10787 10786 10786 10785 10784 10783 10782 10781 10780 10779 10777 10775 10773 10770 10768 10765 10762 10759 10756 10752 10749 10745 10742 10738 10734 10731 10727 10723 10719 10715 10711 10708 10704 10700 10695 10691 10686 10682 10678
10760 10763 10765 10768 10771 10774 10776 10779 10781 10783 10785 10787 10789 10790 10792 10793 10794 10795 10796 10797 10797 10797 10797 10797 10797 10797 10797 10797 10796 10796 10795 10794 10794 10793 10793 10793 10792 10792 10792 10792 10792 10791 10791 10790 10789 10788 10788 10787 10786 10786 10786 10786 10785 10784 10783 10782 10781 10780 10778 10776 10774 10772 10769 10766 10764 10761 10758 10754 10751 10747 10744 10741 10737 10733 10729 10726 10722 10718 10715 10711 10708 10704 10700 10695 10691 10686 10682 10677
10760 10762 10765 10767 10770 10773 10775 10778 10780 10782 10784 10785 10787 10788 10790 10791 10792 10793 10793 10794 10794 10794 10794 10794 10794 10794 10794 10794 10793 10793 10792 10792 10792 10792 10792 10792 10792 10792 10792 10792 10791 10790 10790 10789 10788 10788 10788 10787 10787 10787 10787 10786 10785 10784 10783 10782 10781 10780 10778 10776 10773 10771 10768 10765 10762 10759 10756 10753 10750 10746 10743 10740 10736 10733 10729 10725 10721 10717 10714 10711 10707 10704 10699 10695 10691 10687 10682 10677
10760 10762 10764 10767 10769 10772 10774 10776 10778 10780 10782 10783 10785 10786 10787 10788 10789 10790 10791 10791 10792 10792 10792 10792 10791 10792 10791 10791 10790 10790 10790 10790 10790 10791 10791 10791 10792 10792 10791 10791 10790 10790 10789 10788 10788 10788 10788 10787 10787 10787 10787 10786 10785 10785 10783 10782 10781 10779 10777 10775 10772 10769 10766 10763 10760 10758 10755 10751 10749 10746 10742 10739 10735 10732 10728 10725 10721 10717 10714 10710 10706 10703 10699 10695 10691 10686 10682 10678
10759 10761 10764 10766 10768 10771 10773 10775 10776 10778 10780 10781 10783 10784 10785 10786 10787 10788 10788 10789 10789 10789 10789 10789 10789 10789 10789 10788 10788 10788 10789 10789 10790 10790 10791 10792 10792 10791 10791 10790 10790 10789 10788 10788 10788 10788 10788 10788 10788 10788 10787 10786 10785 10784 10783 10782 10780 10778 10776 10773 10771 10768 10765 10763 10760 10757 10754 10751 10748 10745 10742 10738 10735 10732 10728 10725 10721 10718 10714 10711 10707 10703 10699 10695 10691 10686 10682 10678
10758 10760 10763 10765 10767 10769 10771 10773 10774 10776 10778 10779 10780 10782 10783 10784 10784 10785 10786 10786 10786 10786 10786 10786 10786 10786 10786 10787 10787 10788 10789 10789 10790 10791 10791 10791 10791 10791 10790 10790 10789 10789 10789 10788 10788 10788 10788 10788 10788 10788 10787 10786 10785 10784 10783 10781 10780 10777 10775 10773 10770 10768 10765 10763 10760 10757 10754 10751 10748 10744 10741 10738 10735 10732 10729 10725 10721 10718 10714 10711 10707 10703 10699 10695 10690 10686 10682 10677
10757 10759 10761 10764 10766 10767 10769 10771 10772 10774 10775 10777 10778 10779 10780 10781 10782 10783 10783 10783 10784 10784 10784 10784 10784 10785 10785 10786 10787 10788 10789 10789 10790 10791 10791 10791 10791 10790 10790 10789 10789 10789 10789 10788 10789 10789 10789 10789 10788 10788 10787 10786 10785 10784 10782 10781 10779 10777 10775 10773 10770 10768 10766 10763 10760 10756 10753 10750 10747 10744 10741 10738 10734 10731 10729 10725 10722 10718 10715 10711 10707 10703 10699 10694 10690 10687 10682 10677
10756 10758 10760 10762 10764 10766 10767 10769 10770 10772 10773 10775 10776 10777 10778 10779 10780 10780 10781 10781 10781 10782 10782 10782 10783 10784 10785 10787 10788 10788 10789 10790 10790 10791 10791 10791 10790 10790 10789 10789 10789 10789 10789 10789 10789 10789 10789 10789 10789 10788 10787 10786 10785 10783 10782 10780 10779 10777 10775 10772 10770 10768 10766 10763 10760 10756 10753 10750 10747 10744 10741 10738 10735 10732 10729 10726 10722 10719 10715 10711 10707 10703 10699 10695 10692 10688 10683 10678
10754 10757 10759 10761 10762 10764 10766 10767 10768 10770 10771 10773 10774 10775 10776 10777 10778 10778 10779 10779 10780 10780 10781 10782 10783 10785 10786 10787 10788 10789 10789 10790 10790 10791 10791 10791 10790 10790 10790 10790 10790 10789 10789 10789 10790 10790 10790 10789 10789 10788 10787 10786 10784 10783 10782 10780 10779 10777 10775 10772 10770 10768 10766 10763 10760 10756 10753 10750 10747 10744 10741 10738 10736 10733 10730 10726 10723 10720 10716 10712 10708 10704 10700 10697 10694 10689 10684 10680
10753 10755 10757 10759 10761 10763 10764 10765 10767 10768 10770 10771 10772 10773 10774 10775 10776 10776 10777 10778 10779 10780 10781 10783 10784 10786 10787 10788 10788 10789 10790 10790 10790 10791 10791 10791 10791 10791 10791 10791 10790 10790 10790 10790 10790 10790 10790 10790 10789 10788 10787 10785 10784 10783 10781 10780 10779 10777 10775 10772 10770 10768 10765 10762 10759 10756 10753 10751 10748 10745 10742 10739 10737 10734 10731 10727 10724 10721 10717 10713 10709 10706 10703 10700 10695 10690 10685 10681
10751 10753 10755 10757 10759 10761 10763 10764 10765 10767 10768 10769 10770 10771 10772 10773 10774 10775 10776 10777 10779 10780 10782 10784 10785 10786 10787 10788 10789 10789 10790 10791 10791 10791 10792 10792 10792 10791 10791 10791 10791 10791 10791 10791 10791 10791 10790 10790 10789 10788 10786 10785 10784 10783 10782 10780 10779 10776 10774 10772 10770 10767 10765 10762 10759 10757 10754 10752 10749 10746 10743 10741 10738 10735 10732 10729 10726 10723 10719 10715 10712 10709 10705 10700 10695 10691 10686 10681
10749 10751 10753 10755 10757 10759 10761 10762 10763 10765 10766 10767 10768 10769 10770 10771 10773 10774 10776 10777 10779 10781 10783 10785 10786 10787 10788 10789 10790 10790 10791 10791 10792 10792 10792 10792 10792 10791 10791 10791 10791 10791 10792 10791 10791 10791 10790 10789 10788 10787 10786 10785 10784 10783 10782 10780 10778 10776 10774 10772 10769 10767 10765 10762 10760 10757 10755 10752 10750 10747 10744 10742 10739 10735 10733 10731 10728 10724 10721 10718 10715 10711 10706 10701 10696 10692 10687 10682
10746 10749 10751 10753 10755 10757 10759 10760 10762 10763 10764 10765 10766 10768 10769 10771 10773 10775 10777 10779 10780 10782 10784 10785 10786 10787 10789 10790 10790 10791 10792 10792 10792 10792 10792 10792 10792 10792 10792 10792 10792 10792 10792 10792 10791 10790 10790 10789 10788 10787 10786 10785 10784 10783 10782 10780 10778 10776 10774 10771 10769 10767 10765 10763 10760 10758 10755 10753 10751 10748 10745 10742 10739 10737 10735 10732 10730 10726 10723 10720 10716 10711 10706 10702 10697 10693 10688 10683
10744 10746 10748 10751 10753 10755 10757 10759 10760 10762 10763 10764 10766 10768 10770 10772 10774 10776 10779 10780 10781 10783 10785 10786 10787 10788 10790 10791 10791 10792 10792 10792 10792 10792 10792 10792 10792 10792 10792 10792 10792 10792 10792 10792 10791 10790 10790 10789 10788 10787 10786 10785 10784 10783 10782 10780 10778 10776 10774 10771 10769 10768 10766 10763 10761 10759 10757 10754 10751 10748 10745 10742 10740 10739 10737 10735 10732 10729 10725 10721 10717 10712 10708 10703 10699 10694 10690 10685
10742 10744 10746 10749 10751 10753 10755 10757 10759 10761 10763 10764 10767 10769 10771 10773 10775 10778 10780 10781 10782 10784 10786 10787 10788 10789 10790 10791 10792 10792 10792 10793 10793 10793 10793 10792 10792 10792 10792 10792 10792 10792 10792 10792 10791 10790 10789 10788 10787 10787 10786 10785 10784 10783 10782 10780 10778 10776 10774 10772 10770 10768 10766 10764 10762 10760 10758 10755 10752 10748 10746 10743 10741 10740 10738 10736 10733 10729 10726 10722 10718 10713 10709 10705 10700 10696 10691 10687
10741 10743 10746 10748 10750 10753 10755 10757 10759 10761 10764 10766 10768 10771 10773 10775 10777 10779 10781 10782 10784 10785 10787 10788 10789 10790 10791 10792 10792 10792 10793 10793 10793 10793 10793 10793 10793 10792 10792 10792 10792 10792 10792 10792 10791 10790 10789 10788 10788 10787 10786 10785 10784 10783 10782 10780 10778 10777 10774 10772 10771 10769 10767 10765 10763 10761 10759 10756 10752 10749 10747 10744 10742 10741 10738 10735 10732 10729 10726 10722 10718 10714 10710 10706 10702 10698 10694 10689
10742 10744 10747 10749 10751 10754 10756 10758 10761 10763 10765 10768 10770 10773 10775 10777 10779 10781 10782 10784 10785 10787 10788 10789 10790 10791 10791 10792 10792 10793 10793 10793 10793 10793 10793 10793 10793 10793 10792 10792 10792 10793 10792 10792 10791 10790 10789 10788 10788 10787 10786 10785 10784 10783 10782 10780 10779 10777 10775 10773 10772 10770 10768 10766 10764 10762 10759 10756 10753 10750 10748 10745 10743 10741 10738 10735 10732 10729 10725 10721 10717 10714 10710 10707 10703 10699 10695 10691
10744 10746 10749 10751 10753 10756 10758 10760 10763 10765 10767 10770 10772 10775 10776 10778 10780 10782 10784 10785 10786 10787 10788 10789 10790 10791 10792 10792 10792 10793 10793 10793 10793 10793 10793 10793 10793 10792 10792 10792 10792 10792 10792 10792 10791 10790 10789 10788 10787 10787 10786 10785 10784 10783 10782 10780 10779 10777 10775 10773 10772 10770 10768 10766 10764 10762 10760 10757 10754 10751 10749 10747 10745 10742 10738 10735 10732 10728 10724 10721 10717 10714 10710 10707 10703 10699 10696 10692
10747 10750 10752 10754 10756 10758 10761 10763 10765 10767 10770 10772 10774 10776 10778 10780 10782 10783 10785 10786 10787 10788 10789 10790 10791 10791 10792 10792 10793 10793 10793 10793 10793 10793 10793 10793 10793 10792 10792 10792 10792 10792 10792 10791 10791 10789 10789 10788 10788 10787 10786 10786 10785 10783 10782 10780 10778 10777 10775 10773 10771 10770 10768 10766 10764 10763 10760 10758 10755 10753 10750 10748 10746 10743 10739 10736 10732 10729 10725 10721 10717 10714 10710 10706 10703 10700 10696 10692
10750 10753 10755 10757 10759 10761 10763 10765 10767 10770 10772 10774 10776 10778 10780 10781 10783 10784 10786 10787 10788 10789 10789 10790 10791 10791 10792 10792 10793 10793 10793 10793 10793 10793 10793 10793 10792 10792 10792 10792 10792 10792 10792 10791 10790 10789 10789 10788 10788 10787 10786 10785 10784 10783 10781 10780 10778 10776 10775 10773 10771 10770 10768 10766 10764 10762 10760 10758 10756 10753 10751 10749 10746 10743 10740 10736 10733 10729 10726 10722 10718 10714 10710 10707 10704 10700 10697 10693
10753 10755 10757 10759 10761 10764 10766 10768 10770 10772 10774 10776 10778 10779 10781 10783 10784 10785 10786 10787 10788 10789 10790 10790 10791 10791 10792 10793 10793 10793 10793 10793 10793 10793 10793 10793 10792 10792 10792 10792 10792 10792 10792 10791 10790 10789 10788 10788 10787 10786 10786 10785 10784 10782 10781 10779 10778 10776 10774 10773 10771 10769 10766 10764 10763 10761 10759 10757 10756 10753 10751 10749 10746 10743 10740 10737 10734 10730 10727 10723 10720 10716 10712 10708 10705 10701 10697 10693
10756 10758 10760 10762 10764 10766 10768 10770 10772 10773 10775 10777 10779 10781 10782 10783 10785 10786 10787 10787 10788 10789 10790 10790 10791 10792 10792 10792 10793 10793 10793 10793 10793 10793 10793 10792 10792 10792 10792 10792 10792 10791 10791 10790 10790 10789 10788 10787 10786 10785 10785 10784 10783 10782 10781 10779 10777 10775 10774 10772 10770 10768 10766 10764 10762 10760 10759 10757 10755 10753 10751 10748 10746 10743 10740 10737 10734 10731 10728 10725 10721 10717 10713 10710 10706 10701 10697 10693
10759 10761 10763 10765 10766 10768 10770 10772 10773 10775 10777 10779 10780 10781 10783 10784 10785 10786 10787 10787 10788 10789 10790 10791 10791 10792 10792 10792 10793 10793 10793 10793 10793 10792 10792 10792 10792 10792 10792 10792 10791 10791 10790 10790 10790 10789 10788 10786 10785 10784 10784 10783 10782 10781 10780 10778 10777 10775 10773 10771 10769 10768 10766 10764 10762 10760 10758 10756 10754 10752 10750 10747 10745 10742 10739 10736 10733 10730 10728 10725 10721 10718 10714 10710 10706 10702 10697 10692
10762 10763 10765 10767 10768 10770 10772 10773 10775 10777 10778 10779 10781 10782 10783 10784 10785 10786 10787 10788 10788 10789 10790 10791 10791 10792 10792 10792 10792 10792 10792 10792 10792 10792 10792 10792 10792 10792 10791 10791 10791 10790 10790 10789 10789 10788 10787 10786 10785 10784 10783 10782 10781 10780 10779 10777 10776 10774 10772 10771 10769 10767 10765 10763 10761 10759 10757 10755 10753 10751 10749 10746 10744 10741 10739 10736 10733 10730 10727 10724 10721 10718 10714 10710 10706 10701 10697 10692
10765 10766 10768 10769 10770 10772 10774 10775 10777 10778 10779 10780 10782 10783 10784 10785 10786 10786 10787 10788 10789 10790 10790 10791 10791 10791 10792 10792 10792 10792 10792 10792 10792 10792 10792 10792 10792 10791 10791 10791 10790 10790 10789 10788 10788 10787 10787 10786 10784 10783 10782 10781 10780 10779 10778 10776 10775 10773 10772 10770 10768 10766 10764 10761 10760 10758 10756 10754 10752 10750 10747 10745 10742 10740 10737 10735 10732 10729 10726 10723 10720 10716 10713 10709 10704 10700 10696 10692
10767 10768 10770 10771 10772 10774 10775 10777 10778 10779 10780 10781 10782 10783 10784 10785 10786 10787 10788 10789 10789 10790 10790 10790 10791 10791 10791 10792 10792 10792 10792 10792 10792 10792 10792 10792 10791 10791 10791 10790 10790 10789 10788 10787 10787 10786 10786 10785 10784 10782 10781 10780 10779 10778 10776 10775 10774 10773 10771 10769 10767 10765 10763 10761 10758 10756 10754 10753 10751 10749 10746 10743 10741 10738 10735 10732 10729 10726 10724 10721 10718 10714 10710 10706 10702 10698 10695 10692
10769 10770 10771 10773 10774 10775 10776 10778 10779 10780 10781 10782 10783 10784 10785 10786 10787 10788 10788 10789 10789 10790 10790 10790 10790 10791 10791 10791 10791 10791 10792 10792 10792 10792 10791 10791 10791 10790 10790 10789 10789 10788 10787 10786 10786 10785 10784 10784 10783 10782 10781 10779 10778 10777 10775 10774 10772 10771 10770 10768 10766 10764 10762 10760 10757 10754 10752 10750 10748 10746 10744 10742 10739 10736 10733 10730 10727 10724 10721 10718 10715 10711 10707 10704 10700 10697 10694 10691
10770 10772 10773 10774 10775 10776 10777 10778 10779 10780 10781 10782 10783 10784 10785 10786 10787 10788 10788 10789 10789 10789 10789 10790 10790 10790 10790 10791 10791 10791 10791 10791 10791 10791 10790 10790 10790 10789 10788 10788 10787 10787 10786 10785 10784 10784 10783 10782 10782 10781 10780 10778 10777 10775 10774 10773 10771 10770 10768 10767 10765 10763 10761 10759 10757 10754 10751 10749 10746 10743 10741 10739 10737 10734 10732 10729 10726 10723 10719 10715 10712 10709 10705 10702 10699 10696 10693 10690
10772 10773 10774 10775 10776 10777 10778 10779 10780 10781 10782 10783 10783 10784 10785 10786 10787 10787 10788 10788 10788 10788 10789 10789 10789 10789 10790 10790 10790 10790 10790 10790 10790 10789 10789 10789 10788 10788 10787 10786 10786 10785 10785 10784 10783 10782 10781 10780 10780 10779 10778 10777 10776 10775 10773 10772 10770 10769 10767 10765 10763 10762 10759 10757 10755 10753 10750 10748 10745 10742 10739 10737 10735 10732 10730 10728 10724 10721 10718 10714 10711 10707 10704 10701 10698 10695 10692 10688
10773 10774 10775 10776 10777 10777 10778 10779 10780 10781 10782 10783 10783 10784 10785 10786 10786 10787 10787 10787 10787 10787 10788 10788 10788 10788 10789 10789 10789 10789 10789 10789 10788 10788 10788 10787 10787 10786 10785 10785 10784 10784 10783 10782 10781 10781 10780 10779 10778 10777 10777 10776 10775 10773 10772 10770 10769 10767 10765 10764 10762 10759 10757 10755 10753 10751 10748 10746 10744 10741 10738 10735 10732 10730 10727 10725 10722 10719 10716 10713 10709 10706 10703 10700 10697 10693 10690 10686
10773 10774 10775 10776 10777 10778 10778 10779 10780 10781 10781 10782 10783 10784 10784 10785 10785 10786 10786 10786 10786 10786 10787 10787 10787 10787 10788 10788 10788 10787 10787 10787 10787 10786 10786 10786 10785 10785 10784 10784 10783 10782 10781 10781 10780 10779 10778 10777 10776 10775 10774 10774 10773 10772 10770 10769 10767 10765 10763 10761 10759 10757 10755 10753 10750 10748 10746 10744 10742 10740 10737 10733 10730 10727 10725 10722 10720 10717 10714 10711 10707 10704 10701 10698 10695 10691 10688 10684
10773 10774 10775 10776 10777 10778 10778 10779 10780 10780 10781 10782 10782 10783 10783 10784 10784 10785 10785 10785 10785 10785 10786 10786 10786 10786 10786 10786 10786 10786 10786 10786 10785 10785 10785 10784 10784 10783 10783 10782 10781 10781 10780 10779 10778 10777 10776 10775 10774 10773 10772 10771 10770 10769 10768 10766 10765 10763 10761 10758 10756 10754 10752 10750 10747 10745 10743 10741 10739 10737 10735 10732 10728 10725 10722 10720 10717 10715 10712 10708 10705 10702 10698 10695 10692 10688 10685 10682
10773 10774 10775 10776 10776 10777 10778 10778 10779 10780 10780 10781 10781 10782 10782 10783 10783 10783 10783 10784 10784 10784 10784 10785 10785 10785 10785 10785 10785 10785 10785 10784 10784 10784 10783 10783 10783 10782 10781 10781 10780 10779 10778 10777 10776 10775 10774 10773 10772 10770 10769 10768 10766 10765 10764 10763 10761 10760 10758 10756 10754 10751 10749 10747 10744 10742 10739 10737 10735 10733 10732 10730 10727 10723 10720 10717 10714 10711 10709 10706 10703 10699 10696 10692 10689 10686 10682 10679
10772 10773 10774 10775 10776 10776 10777 10777 10778 10779 10779 10779 10780 10780 10780 10781 10781 10782 10782 10782 10782 10782 10783 10783 10783 10783 10783 10783 10783 10783 10783 10783 10782 10782 10782 10781 10781 10780 10779 10779 10778 10777 10776 10775 10774 10773 10772 10770 10769 10768 10766 10764 10763 10761 10760 10759 10758 10756 10754 10753 10751 10749 10747 10745 10742 10740 10737 10734 10732 10730 10728 10726 10724 10721 10718 10714 10712 10709 10705 10703 10700 10697 10693 10690 10687 10684 10680 10677
10771 10772 10773 10773 10774 10775 10776 10776 10777 10777 10777 10778 10778 10778 10778 10779 10779 10780 10780 10780 10780 10780 10781 10781 10781 10781 10781 10781 10781 10781 10781 10781 10780 10780 10780 10779 10779 10778 10777 10776 10776 10775 10774 10773 10772 10771 10770 10768 10767 10765 10764 10762 10760 10758 10756 10755 10753 10752 10750 10749 10747 10745 10743 10741 10739 10737 10734 10731 10729 10727 10724 10722 10720 10718 10715 10711 10708 10706 10702 10699 10696 10693 10690 10688 10685 10682 10679 10676
10770 10770 10771 10772 10772 10773 10774 10774 10775 10775 10775 10776 10776 10776 10776 10777 10777 10777 10778 10778 10778 10778 10779 10779 10779 10779 10779 10779 10779 10779 10778 10778 10778 10777 10777 10777 10776 10775 10775 10774 10773 10772 10771 10770 10769 10768 10767 10766 10764 10763 10762 10760 10757 10755 10753 10751 10749 10748 10746 10744 10742 10740 10738 10736 10734 10732 10730 10727 10726 10723 10721 10718 10716 10713 10711 10708 10704 10702 10699 10696 10693 10690 10687 10685 10682 10680 10677 10674
10767 10768 10769 10770 10770 10771 10772 10772 10772 10773 10773 10773 10774 10774 10774 10774 10775 10775 10775 10776 10776 10776 10776 10776 10776 10777 10776 10776 10776 10776 10776 10775 10775 10774 10774 10773 10773 10772 10772 10771 10770 10769 10768 10767 10766 10765 10764 10762 10761 10759 10758 10758 10756 10753 10749 10747 10744 10743 10742 10740 10738 10736 10734 10731 10730 10728 10725 10722 10720 10719 10717 10715 10712 10709 10707 10705 10701 10697 10695 10692 10690 10687 10684 10681 10679 10676 10673 10671
10765 10766 10766 10767 10768 10769 10769 10770 10770 10770 10771 10771 10771 10771 10772 10772 10772 10773 10773 10773 10773 10773 10774 10774 10774 10774 10774 10773 10773 10773 10772 10772 10772 10771 10771 10770 10770 10769 10769 10768 10767 10766 10765 10764 10763 10762 10760 10758 10757 10755 10753 10753 10753 10750 10747 10744 10740 10738 10737 10735 10733 10732 10729 10727 10725 10724 10721 10717 10714 10713 10712 10710 10708 10704 10702 10700 10698 10694 10690 10688 10686 10683 10680 10678 10675 10672 10669 10666
10762 10762 10763 10764 10765 10765 10766 10767 10767 10768 10768 10768 10769 10769 10769 10769 10769 10770 10770 10770 10770 10771 10771 10771 10771 10771 10771 10770 10770 10770 10769 10769 10769 10768 10768 10767 10767 10766 10766 10765 10764 10763 10761 10760 10759 10758 10757 10755 10753 10751 10748 10746 10746 10746 10743 10740 10737 10734 10733 10730 10728 10727 10724 10721 10720 10719 10717 10713 10709 10707 10706 10705 10702 10699 10697 10695 10693 10690 10687 10684 10682 10680 10677 10674 10671 10668 10665 10662
10758 10759 10760 10760 10761 10762 10763 10763 10764 10764 10765 10765 10765 10766 10766 10766 10766 10767 10767 10767 10767 10767 10767 10768 10768 10767 10767 10767 10766 10766 10766 10765 10765 10765 10764 10764 10763 10763 10762 10761 10760 10759 10758 10757 10756 10754 10754 10752 10750 10748 10745 10741 10739 10739 10738 10734 10731 10729 10728 10726 10724 10722 10719 10715 10714 10714 10713 10709 10704 10701 10700 10700 10697 10694 10692 10690 10688 10687 10683 10680 10678 10676 10673 10670 10667 10664 10661 10658